Find Xihe

NORAD ID: 49316 Int'l Des: 2021-091 Owner: NJU/SAST Country: CN operational
LEOCIRCULARRETROGRADESSO

实时位置

正在加载3D地球...

关于 Xihe

正在加载描述...

即将过境

Passes for default location (London). Set your location on the main map for personalized predictions.

高度历史

Loading altitude history...

两行轨道根数

1 49316U 21091B 26106.96954076 .00001698 00000-0 86156-4 0 9991
2 49316 97.4482 295.4864 0011818 252.6300 107.3642 15.18236810249692
Epoch: Apr 16, 2026 • Age: 13 hours

当前状态

高度 528.7 km
速度 7.60 km/s
星下点 66.32°N, 101.34°E
发射日期 Oct 14, 2021
运行时间 4.5 years
类型 other

技术详情

分类 Payload
质量 500.00 kg
干质量 500.00 kg
总质量 500.00 kg
长度 2.00 m
直径 1.00 m
跨度 5.00 m
形状 Box+2 pan
制造商 SAST
平台类型 CHASE
阶段状态 In Orbit
所有者/国家 NJU/SAST/CN

Most Searched